User: anonymous   Login
Location: Unspecified
(0.0000°N, 0.0000°E)
Time: 01:32:43
(UTC+01:00)
Language:

Cosmos 1733 Rocket - Orbit

View from above orbital plane
View from above orbital plane
View from above satellite
View from above satellite

Ground track
Ground track

The orbit data is extracted from the following two-line orbital elements,

1 16612U 86018B   18052.55772615  .00000059  00000-0  40821-5 0  9997
2 16612  82.5143  62.4633 0018941  53.2245  65.1335 14.84184616628449
Epoch (UTC): 21 February 2018 13:23:07
Eccentricity: 0.0018941
inclination: 82.5143°
perigee height: 603 km
apogee height: 629 km
right ascension of ascending node: 62.4633°
argument of perigee: 53.2245°
revolutions per day: 14.84184616
mean anomaly at epoch: 65.1335°
orbit number at epoch: 62844

The dashed part of the orbit path shows where the satellite is in the earth's shadow,  

DLR